User: anonymous   Login
Location: Unspecified
(0.0000°N, 0.0000°E)
Time: 18:02:38
(UTC+00:00)
Language:

USA 236 - Orbit

View from above orbital plane
View from above orbital plane
View from above satellite
View from above satellite

Ground track
Ground track

The orbit data is extracted from the following two-line orbital elements,

1 38466U 12033A   17302.48397500 0.00000000  00000-0  00000-0 0    08
2 38466   1.3804 202.1884 0003770  54.5893 305.4686  1.00270000    03
Epoch (UTC): 29 October 2017 11:36:55
Eccentricity: 0.0003770
inclination: 1.3804°
perigee height: 35771 km
apogee height: 35802 km
right ascension of ascending node: 202.1884°
argument of perigee: 54.5893°
revolutions per day: 1.00270000
mean anomaly at epoch: 305.4686°
orbit number at epoch: 0

The dashed part of the orbit path shows where the satellite is in the earth's shadow,  

DLR